[[{"header":{"parameterUnit":"m.s-1","parameterCategory":1,"la1":30.2991,"la2":30.254,"lo1":-89.0895,"lo2":-89.0444,"dy":0.0017,"dx":0.0017,"nx":28,"ny":28,"refTime":"2025-11-09T09:00:00:Z","depth":0,"parameterNumber":2,"parameterNumberName":"U-component_of_WINDS"},"data":[0,0,0,0,0,0,0,0,0,0,0,0,0,0,0,0,0,0,0,0,0,0,0,0,0,0,0,0,0,0,0,0,0,0,0,0,0,0,0,0,0,0,0,0,0,0,0,0,0,0,0,0,0,0,0,0,0,0,2.3833,2.3833,0,2.3832,2.3832,2.3832,2.3811,2.381,2.3809,2.3809,2.3806,2.3806,2.3807,0,0,0,0,0,0,0,0,0,0,0,0,0,2.3818,2.3818,2.3833,2.3833,2.3833,2.3832,2.3832,2.3832,2.3811,2.381,2.3809,2.3809,2.3806,2.3806,2.3807,0,0,0,0,0,0,0,0,0,0,0,0,0,2.3821,2.3818,2.3833,2.3822,2.3822,2.3832,2.3832,2.3832,2.3811,2.381,2.3809,2.3808,2.3806,2.3806,2.3807,2.3827,0,0,2.3809,2.3809,0,0,0,0,0,0,0,0,2.3821,2.3822,2.3824,2.3823,2.3822,2.382,2.3825,2.383,2.3811,2.3815,2.3809,2.3808,2.3811,2.3811,2.3813,2.3826,2.3826,2.3809,2.3809,2.3809,2.381,0,0,0,0,0,0,0,2.3821,2.3822,2.3832,2.3824,2.3823,2.3818,2.3817,2.3826,2.3817,2.3814,2.3813,2.3813,2.3811,2.3812,2.3813,2.3826,2.3809,2.3809,2.381,2.381,2.3857,2.3858,0,0,0,0,0,0,2.3822,2.3822,2.3833,2.3832,2.382,2.3819,2.3818,2.3822,2.3817,2.3816,2.3814,2.3812,2.3812,2.3812,2.3812,2.3836,2.3809,2.381,2.381,2.3856,2.3857,2.3858,0,0,0,0,0,0,2.3822,2.3823,2.3833,2.3827,2.3827,2.382,2.3824,2.3822,2.3824,2.3817,2.3815,2.3817,2.3811,2.3812,2.3824,2.3835,2.381,2.3811,2.3855,2.3857,2.3858,2.3882,0,0,0,0,0,0,2.3821,2.3823,2.3831,2.3827,2.3828,2.3844,2.3825,2.3823,2.3825,2.3823,2.3819,2.3818,2.381,2.3823,2.3824,2.3836,2.3811,2.3854,2.3856,2.3857,2.388,2.3884,2.3887,0,0,0,0,0,2.3821,2.3837,2.3831,2.3832,2.3837,2.3844,2.3845,2.3836,2.3826,2.3833,2.3829,2.3818,2.3834,2.3824,2.3826,2.3837,2.3853,2.3855,2.3857,2.3878,2.3883,2.3887,0,0,0,0,0,0,2.3841,2.3836,2.3829,2.3845,2.3845,2.3841,2.385,2.3841,2.3844,2.3842,2.3831,2.383,2.3844,2.3842,2.3831,2.3857,2.3842,2.3844,2.3857,2.3862,2.3865,2.3865,2.3812,0,0,0,0,0,2.3847,2.3854,2.3849,2.3863,2.3864,2.3857,2.386,2.3854,2.3853,2.3853,2.385,2.385,2.3855,2.3858,2.3863,2.388,2.3879,2.3889,2.3893,2.3896,2.3897,2.3907,2.3912,2.3865,2.3865,2.3865,0,0,2.386,2.3858,2.3863,2.3867,2.3867,2.3874,2.3857,2.3865,2.3871,2.3854,2.3866,2.3864,2.3863,2.3878,2.3884,2.3877,2.3911,2.3898,2.3901,2.3901,2.391,2.3914,2.3918,2.3866,2.3866,2.3866,0,0,2.3887,2.3886,2.3898,2.3899,2.3899,2.3894,2.3898,2.3895,2.3893,2.3905,2.3893,2.3899,2.3908,2.3908,2.3909,2.3939,2.3929,2.3941,2.3959,2.3969,2.3972,2.3975,2.3986,2.399,2.3943,2.3943,2.3943,0,2.3902,2.3913,2.3905,2.3915,2.3917,2.3904,2.3916,2.3917,2.3918,2.392,2.3912,2.3924,2.3922,2.3937,2.3945,2.3947,2.395,2.394,2.3973,2.3976,2.3979,2.3988,2.3992,2.3944,2.3944,2.3944,2.3944,0,2.3932,2.394,2.395,2.3953,2.3956,2.3967,2.3961,2.3966,2.396,2.3956,2.3968,2.3967,2.3971,2.3974,2.3968,2.3989,2.3984,2.3975,2.3959,2.3985,2.3994,2.3997,2.3946,2.3946,2.3945,2.3945,0,0,2.397,2.397,2.3973,2.3975,2.3975,2.3981,2.3992,2.3996,2.4001,2.4003,2.4011,2.402,2.4012,2.4013,2.4007,2.4016,2.404,2.4005,2.4005,2.4011,2.4063,2.407,2.4074,2.4034,2.4034,2.4035,2.4063,0,2.3996,2.4014,2.4008,2.4026,2.4034,2.4023,2.4032,2.4033,2.4031,2.4037,2.4034,2.4041,2.4029,2.403,2.4038,2.4035,2.405,2.4033,2.4041,2.4041,2.4041,2.4079,2.4086,2.4112,2.4067,2.4067,2.4068,0,2.4027,2.4032,2.4051,2.4052,2.4055,2.4063,2.4068,2.4074,2.4076,2.4073,2.4076,2.4069,2.4079,2.4065,2.408,2.4069,2.4072,2.4071,2.4072,2.4071,2.4055,2.4079,2.4121,2.4124,2.4073,2.4073,2.4072,0,2.4052,2.4063,2.4077,2.4079,2.4079,2.4086,2.4086,2.4087,2.4091,2.4095,2.4098,2.4103,2.4105,2.411,2.4104,2.4094,2.412,2.4105,2.4118,2.4118,2.4122,2.4122,2.4164,2.4126,2.4126,2.4126,2.4126,0,2.4081,2.4094,2.4088,2.4096,2.411,2.4104,2.4117,2.4117,2.4118,2.4126,2.4117,2.4124,2.4117,2.4124,2.4119,2.4132,2.4133,2.4132,2.413,2.4132,2.4132,2.4133,2.4131,2.4127,2.4127,2.4127,2.4126,0,2.4111,2.4108,2.4122,2.4122,2.4122,2.4133,2.4133,2.414,2.4138,2.4148,2.415,2.4147,2.4155,2.415,2.4157,2.4155,2.4172,2.4168,2.4171,2.417,2.4183,2.4182,2.4227,2.4232,2.4191,2.4191,2.4192,0,2.4129,2.4138,2.414,2.4145,2.4147,2.4155,2.4159,2.4154,2.4159,2.4162,2.417,2.4177,2.4182,2.4195,2.4193,2.4199,2.4195,2.4211,2.4196,2.4198,2.4195,2.4194,2.4195,2.4213,2.4214,2.4214,2.4215,0,2.4161,2.416,2.4167,2.4173,2.4179,2.4184,2.4188,2.4193,2.4187,2.4193,2.4202,2.4206,2.4215,2.4222,2.4228,2.4228,2.4221,2.422,2.4223,2.4224,2.4226,2.4225,2.4178,2.4218,2.4218,2.4218,2.4217,2.4217,2.4185,2.4194,2.4197,2.4205,2.4208,2.4212,2.422,2.4219,2.4226,2.4233,2.423,2.424,2.4243,2.425,2.4251,2.4259,2.4253,2.4257,2.4258,2.4259,2.4261,2.4226,2.426,2.426,2.426,2.426,2.426,0,2.4217,2.4219,2.4227,2.4233,2.424,2.4234,2.4239,2.4244,2.4253,2.4257,2.4263,2.4273,2.4281,2.428,2.4287,2.4294,2.429,2.4296,2.4295,2.4295,2.4267,2.4263,2.4298,2.4298,2.4298,2.4298,2.4298,2.4298,2.4234,2.4248,2.4247,2.4263,2.4264,2.4275,2.4278,2.4282,2.4285,2.4297,2.4304,2.4304,2.4306,2.4313,2.432,2.432,2.4323,2.4329,2.4327,2.4301,2.4297,2.4293,2.4289,2.433,2.433,2.4355,2.4355,2.4355]},{"header":{"parameterUnit":"m.s-1","parameterCategory":1,"la1":30.2991,"la2":30.254,"lo1":-89.0895,"lo2":-89.0444,"dy":0.0017,"dx":0.0017,"nx":28,"ny":28,"refTime":"2025-11-09T09:00:00:Z","depth":0,"parameterNumber":3,"parameterNumberName":"V-component_of_WINDS"},"data":[0,0,0,0,0,0,0,0,0,0,0,0,0,0,0,0,0,0,0,0,0,0,0,0,0,0,0,0,0,0,0,0,0,0,0,0,0,0,0,0,0,0,0,0,0,0,0,0,0,0,0,0,0,0,0,0,0,0,-7.8444,-7.8446,0,-7.859,-7.8591,-7.8593,-7.855,-7.8547,-7.8544,-7.8542,-7.8684,-7.869,-7.8697,0,0,0,0,0,0,0,0,0,0,0,0,0,-7.8124,-7.8131,-7.8444,-7.8446,-7.8448,-7.8589,-7.8591,-7.8593,-7.8551,-7.8547,-7.8544,-7.854,-7.8682,-7.8689,-7.8697,0,0,0,0,0,0,0,0,0,0,0,0,0,-7.8266,-7.8133,-7.8444,-7.8444,-7.8445,-7.8589,-7.8592,-7.8594,-7.8552,-7.8547,-7.8543,-7.8538,-7.8679,-7.8689,-7.8698,-7.8849,0,0,-7.8729,-7.8733,0,0,0,0,0,0,0,0,-7.8258,-7.8278,-7.8442,-7.8444,-7.8446,-7.8547,-7.8531,-7.8679,-7.8553,-7.8511,-7.8541,-7.8536,-7.8642,-7.8654,-7.8691,-7.8856,-7.8862,-7.8729,-7.8735,-7.874,-7.8742,0,0,0,0,0,0,0,-7.8248,-7.8271,-7.8501,-7.8444,-7.8447,-7.8435,-7.845,-7.8559,-7.8599,-7.8514,-7.8512,-7.853,-7.8642,-7.8682,-7.8694,-7.8864,-7.8729,-7.8738,-7.8744,-7.8748,-7.9161,-7.9165,0,0,0,0,0,0,-7.8238,-7.8263,-7.8497,-7.8506,-7.8339,-7.8444,-7.8461,-7.8519,-7.8598,-7.8606,-7.8533,-7.8527,-7.8667,-7.8683,-7.8699,-7.8882,-7.874,-7.8749,-7.8755,-7.9156,-7.9162,-7.9167,0,0,0,0,0,0,-7.8231,-7.8259,-7.8491,-7.8384,-7.8413,-7.8455,-7.852,-7.8524,-7.8565,-7.8613,-7.8619,-7.8567,-7.8664,-7.8685,-7.8813,-7.8886,-7.8753,-7.8762,-7.915,-7.9158,-7.9165,-7.9248,0,0,0,0,0,0,-7.8222,-7.8257,-7.8316,-7.8386,-7.8419,-7.8604,-7.8525,-7.8531,-7.8582,-7.8576,-7.8646,-7.8653,-7.8662,-7.8799,-7.8823,-7.8897,-7.877,-7.9143,-7.9153,-7.9162,-7.9239,-7.9258,-7.9274,0,0,0,0,0,-7.8211,-7.8331,-7.8319,-7.8347,-7.8493,-7.8609,-7.8627,-7.8637,-7.8589,-7.8647,-7.8679,-7.8651,-7.8874,-7.8812,-7.8839,-7.8918,-7.9139,-7.915,-7.9161,-7.9231,-7.9254,-7.9273,0,0,0,0,0,0,-7.8266,-7.834,-7.8327,-7.8475,-7.8536,-7.8601,-7.8676,-7.866,-7.8735,-7.8725,-7.8732,-7.8748,-7.8879,-7.8911,-7.884,-7.9068,-7.8999,-7.9016,-7.9043,-7.9065,-7.9082,-7.9072,-7.8778,0,0,0,0,0,-7.8296,-7.8385,-7.8445,-7.8569,-7.8601,-7.8633,-7.8684,-7.8686,-7.8749,-7.8774,-7.8814,-7.8875,-7.8958,-7.9013,-7.9093,-7.9243,-7.9258,-7.9311,-7.9328,-7.9342,-7.9357,-7.944,-7.9464,-7.9205,-7.9204,-7.9204,0,0,-7.8357,-7.8409,-7.8464,-7.8581,-7.8629,-7.872,-7.8655,-7.8753,-7.8821,-7.8788,-7.8912,-7.8944,-7.9012,-7.9152,-7.9216,-7.9183,-7.9432,-7.9356,-7.9367,-7.9375,-7.9454,-7.9479,-7.9501,-7.9212,-7.9211,-7.921,0,0,-7.8516,-7.8564,-7.8674,-7.8724,-7.8799,-7.882,-7.8846,-7.8915,-7.8936,-7.9061,-7.9039,-7.9118,-7.9262,-7.9312,-7.9356,-7.9536,-7.9514,-7.9562,-7.9652,-7.9733,-7.9753,-7.9772,-7.9837,-7.986,-7.9576,-7.9577,-7.9577,0,-7.8583,-7.8721,-7.8732,-7.8834,-7.8886,-7.8863,-7.8974,-7.9021,-7.9117,-7.9153,-7.9114,-7.9297,-7.934,-7.9493,-7.9537,-7.9573,-7.9603,-7.9554,-7.975,-7.9768,-7.9785,-7.9848,-7.9872,-7.9582,-7.9581,-7.9581,-7.958,0,-7.88,-7.8896,-7.8976,-7.9072,-7.9133,-7.9239,-7.9264,-7.9324,-7.9322,-7.9347,-7.9475,-7.9527,-7.9618,-7.9654,-7.9651,-7.9807,-7.9784,-7.9748,-7.9679,-7.9816,-7.9874,-7.9898,-7.959,-7.9588,-7.9586,-7.9585,0,0,-7.8997,-7.91,-7.9129,-7.9173,-7.9254,-7.9328,-7.9433,-7.9524,-7.9576,-7.9643,-7.9731,-7.9854,-7.9822,-7.9872,-7.9875,-7.9946,-8.0088,-7.9902,-7.9903,-7.9935,-8.0263,-8.029,-8.0318,-8.0073,-8.0078,-8.0082,-8.0258,0,-7.9164,-7.9351,-7.9364,-7.9532,-7.9622,-7.9602,-7.9693,-7.9752,-7.9779,-7.9857,-7.9885,-7.9973,-7.9924,-7.9954,-8.0024,-8.0056,-8.0153,-8.0043,-8.0154,-8.0158,-8.0139,-8.0348,-8.0377,-8.0541,-8.0281,-8.0284,-8.0287,0,-7.9383,-7.946,-7.9638,-7.9709,-7.9747,-7.9829,-7.9915,-7.9991,-8.0057,-8.0071,-8.0129,-8.0122,-8.0228,-8.0156,-8.0302,-8.0227,-8.0273,-8.0296,-8.0302,-8.0313,-8.0231,-8.0366,-8.0593,-8.0618,-8.0323,-8.032,-8.0318,0,-7.951,-7.9658,-7.9785,-7.9823,-7.9908,-7.9967,-8.0004,-8.0067,-8.0121,-8.0195,-8.0231,-8.0316,-8.0362,-8.0427,-8.0443,-8.0388,-8.059,-8.0518,-8.0604,-8.0604,-8.0647,-8.0644,-8.0886,-8.0676,-8.0676,-8.0675,-8.0675,0,-7.9696,-7.9806,-7.9844,-7.9921,-8.0044,-8.0058,-8.0178,-8.0211,-8.0268,-8.0351,-8.0337,-8.0415,-8.0432,-8.0512,-8.0525,-8.0645,-8.0666,-8.0679,-8.0682,-8.0681,-8.068,-8.0712,-8.0701,-8.0682,-8.068,-8.0679,-8.0678,0,-7.9859,-7.9888,-8.0025,-8.0096,-8.0116,-8.0204,-8.0263,-8.0337,-8.0363,-8.0468,-8.0493,-8.0532,-8.0627,-8.065,-8.0761,-8.077,-8.0912,-8.0903,-8.0891,-8.0891,-8.0976,-8.0968,-8.1247,-8.1285,-8.1049,-8.1052,-8.1053,0,-7.9975,-8.006,-8.0141,-8.0197,-8.0239,-8.0329,-8.0386,-8.0402,-8.0461,-8.0545,-8.0609,-8.0703,-8.0779,-8.093,-8.0968,-8.1053,-8.1046,-8.1138,-8.1059,-8.1057,-8.1049,-8.1044,-8.1053,-8.1154,-8.1156,-8.1158,-8.116,0,-8.018,-8.0191,-8.0275,-8.0365,-8.0434,-8.0504,-8.0572,-8.0618,-8.0643,-8.0711,-8.0809,-8.0868,-8.0984,-8.1077,-8.1164,-8.1201,-8.1185,-8.1185,-8.1209,-8.121,-8.12,-8.1208,-8.0933,-8.1178,-8.1176,-8.1175,-8.1174,-8.1173,-8.0324,-8.0399,-8.0469,-8.0563,-8.0616,-8.068,-8.0754,-8.079,-8.0873,-8.0971,-8.0975,-8.1082,-8.1147,-8.1262,-8.1304,-8.1387,-8.1359,-8.1394,-8.1403,-8.1412,-8.142,-8.1187,-8.1403,-8.1402,-8.1402,-8.1401,-8.1401,0,-8.0529,-8.0574,-8.066,-8.0757,-8.0831,-8.0812,-8.0886,-8.0949,-8.1044,-8.1107,-8.1183,-8.1297,-8.1387,-8.1433,-8.1523,-8.158,-8.1575,-8.1603,-8.1599,-8.1608,-8.144,-8.141,-8.1606,-8.1606,-8.1606,-8.1606,-8.1606,-8.1606,-8.0645,-8.0772,-8.0791,-8.0944,-8.0987,-8.1094,-8.1138,-8.1197,-8.1248,-8.1376,-8.1453,-8.1483,-8.1539,-8.1633,-8.1715,-8.1726,-8.176,-8.1792,-8.1799,-8.1641,-8.162,-8.16,-8.1572,-8.1799,-8.1799,-8.1961,-8.1962,-8.1963]}]]